Photometre #383[NE_1.6] Valladolid AOT

File : 20190925_383.hum

25/09/2019,06:57:06,TEMP=10.6,BA=5.64,STAT.A=24.0,ExtBa=13.42
25/09/2019,07:00:32,TEMP=11.1,BA=5.64,STAT.A=23.5,ExtBa=13.25
25/09/2019,07:04:34,TEMP=11.3,BA=5.64,STAT.A=23.5,ExtBa=13.18
25/09/2019,07:09:22,TEMP=11.6,BA=5.64,STAT.A=23.5,ExtBa=13.17
25/09/2019,07:15:09,TEMP=12.0,BA=5.60,STAT.A=23.5,ExtBa=13.17
25/09/2019,07:22:16,TEMP=12.5,BA=5.64,STAT.A=24.0,ExtBa=13.22
25/09/2019,07:31:17,TEMP=13.4,BA=5.60,STAT.B=24.0,ExtBa=13.27
25/09/2019,07:40:04,TEMP=14.6,BA=5.60,STAT.A=23.5,ExtBa=12.89
25/09/2019,07:41:57,TEMP=14.9,BA=5.60,STAT.A=23.0,ExtBa=12.93
25/09/2019,07:45:51,TEMP=14.9,BA=5.60,STAT.A=23.5,ExtBa=13.04
25/09/2019,07:52:04,TEMP=15.4,BA=5.64,STAT.A=24.0,ExtBa=13.12
25/09/2019,07:59:11,TEMP=16.2,BA=5.64,STAT.F,ExtBa=13.16
25/09/2019,08:13:17,TEMP=17.4,BA=5.60,STAT.A=23.5,ExtBa=12.86
25/09/2019,08:17:14,TEMP=17.2,BA=5.60,STAT.A=24.0,ExtBa=13.02
25/09/2019,08:28:57,TEMP=17.1,BA=5.60,STAT.A=24.0,ExtBa=13.20
25/09/2019,08:43:22,TEMP=17.7,BA=5.60,STAT.A=24.0,ExtBa=13.26
25/09/2019,09:01:40,TEMP=18.7,BA=5.60,STAT.B=24.0,ExtBa=13.30
25/09/2019,09:11:12,TEMP=18.7,BA=5.60,STAT.F,ExtBa=12.93
25/09/2019,09:26:12,STAT.X
25/09/2019,09:41:11,TEMP=19.9,BA=5.60,STAT.D=24.0,ExtBa=13.14
25/09/2019,09:56:11,TEMP=20.2,BA=5.60,STAT.D=24.5,ExtBa=13.21
25/09/2019,10:11:12,TEMP=20.8,BA=5.60,STAT.F,ExtBa=13.23
25/09/2019,10:26:11,TEMP=21.5,BA=5.60,STAT.D=24.0,ExtBa=12.92
25/09/2019,10:41:10,TEMP=21.9,BA=5.60,STAT.D=24.5,ExtBa=13.17
25/09/2019,10:56:11,TEMP=21.6,BA=5.60,STAT.D=24.5,ExtBa=13.21
25/09/2019,11:11:13,TEMP=21.6,BA=5.60,STAT.F,ExtBa=13.23
25/09/2019,11:26:11,TEMP=22.1,BA=5.60,STAT.D=24.0,ExtBa=12.91
25/09/2019,11:41:11,TEMP=22.6,BA=5.60,STAT.D=24.5,ExtBa=13.16
25/09/2019,11:56:11,TEMP=23.0,BA=5.60,STAT.D=24.5,ExtBa=13.19
25/09/2019,12:11:13,TEMP=23.6,BA=5.60,STAT.F,ExtBa=13.22
25/09/2019,12:26:11,TEMP=24.3,BA=5.56,STAT.D=24.0,ExtBa=12.92
25/09/2019,12:41:11,TEMP=24.4,BA=5.60,STAT.D=24.5,ExtBa=13.14
25/09/2019,12:56:11,TEMP=24.7,BA=5.60,STAT.D=24.5,ExtBa=13.18
25/09/2019,13:11:13,TEMP=25.5,BA=5.60,STAT.F,ExtBa=13.19
25/09/2019,13:26:11,TEMP=25.8,BA=5.56,STAT.D=24.0,ExtBa=12.86
25/09/2019,13:41:11,TEMP=25.5,BA=5.60,STAT.D=24.5,ExtBa=13.11
25/09/2019,13:56:11,TEMP=25.1,BA=5.60,STAT.D=24.5,ExtBa=13.15
25/09/2019,14:11:12,TEMP=25.3,BA=5.60,STAT.F,ExtBa=13.16
25/09/2019,14:26:11,TEMP=25.6,BA=5.56,STAT.D=24.0,ExtBa=12.88
25/09/2019,14:41:11,TEMP=25.6,BA=5.60,STAT.D=24.5,ExtBa=13.10
25/09/2019,14:56:12,STAT.X
25/09/2019,15:11:12,TEMP=24.8,BA=5.60,STAT.F,ExtBa=13.07
25/09/2019,15:25:20,TEMP=24.6,BA=5.56,STAT.B=24.0,ExtBa=12.83
25/09/2019,15:39:02,TEMP=24.5,BA=5.56,STAT.A=24.5,ExtBa=12.95
25/09/2019,15:53:27,TEMP=24.2,BA=5.60,STAT.A=24.5,ExtBa=13.06
25/09/2019,16:05:10,TEMP=24.1,BA=5.60,STAT.A=24.5,ExtBa=13.08
25/09/2019,16:14:56,TEMP=24.4,BA=5.60,STAT.A=24.5,ExtBa=13.08
25/09/2019,16:23:12,TEMP=24.5,BA=5.60,STAT.F,ExtBa=13.08
25/09/2019,16:37:22,TEMP=24.4,BA=5.56,STAT.A=24.0,ExtBa=12.80
25/09/2019,16:39:14,TEMP=24.4,BA=5.56,STAT.A=24.0,ExtBa=12.81
25/09/2019,16:41:59,TEMP=24.1,BA=5.56,STAT.A=24.0,ExtBa=12.85
25/09/2019,16:46:46,TEMP=23.6,BA=5.56,STAT.A=24.5,ExtBa=12.91
25/09/2019,16:51:05,TEMP=23.3,BA=5.60,STAT.B=24.5,ExtBa=12.91
25/09/2019,17:00:06,TEMP=23.0,BA=5.56,STAT.A=24.0,ExtBa=12.79
25/09/2019,17:07:13,TEMP=22.3,BA=5.56,STAT.A=24.5,ExtBa=12.94
25/09/2019,17:13:00,TEMP=22.0,BA=5.60,STAT.A=24.5,ExtBa=12.94
25/09/2019,17:17:49,TEMP=21.9,BA=5.60,STAT.A=24.5,ExtBa=12.93
25/09/2019,17:21:48,TEMP=21.8,BA=5.60,STAT.A=24.5,ExtBa=12.92
25/09/2019,17:25:15,TEMP=21.8,BA=5.60,STAT.A=24.0,ExtBa=12.89